Terminal Aerodrome Forecast
Issued by NWS Nashville, TN

Home | Current Version | Previous Version | Text Only | Print | Product List | Glossary On
Versions: 1 2 3 4 5 6 7 8 9 10 11 12 13 14 15 16 17 18 19 20 21 22 23 24 25
000
FTUS44 KOHX 121135 CCA
TAFCSV
TAF COR
KCSV 121135Z 1212/1312 29007G15KT P6SM OVC025
      TEMPO 1213/1217 4SM -SHSN OVC015
     FM121700 31014G23KT 6SM -SHSN OVC025
     FM121800 31015G23KT P6SM BKN060
     FM130100 31009KT P6SM FEW250
     FM130600 30005KT P6SM SKC=

USA.gov is the U.S. government's official web portal to all federal, state and local government web resources and services.